[[{"header":{"parameterUnit":"m.s-1","parameterCategory":1,"la1":30.2991,"la2":30.254,"lo1":-89.0895,"lo2":-89.0444,"dy":0.0017,"dx":0.0017,"nx":28,"ny":28,"refTime":"2024-04-07T21:00:00:Z","depth":0,"parameterNumber":2,"parameterNumberName":"U-component_of_WINDS"},"data":[0,0,0,0,0,0,0,0,0,0,0,0,0,0,0,0,0,0,0,0,0,0,0,0,0,0,0,0,0,0,0,0,0,0,0,0,0,0,0,0,0,0,0,0,0,0,0,0,0,0,0,0,0,0,0,0,0,0,-4.019,-4.0191,0,-4.025,-4.0251,-4.0252,-4.0236,-4.0234,-4.0233,-4.0232,-4.0288,-4.0291,-4.0293,0,0,0,0,0,0,0,0,0,0,0,0,0,-4.0057,-4.006,-4.019,-4.0191,-4.0192,-4.025,-4.0251,-4.0252,-4.0236,-4.0234,-4.0233,-4.0232,-4.0287,-4.029,-4.0294,0,0,0,0,0,0,0,0,0,0,0,0,0,-4.0116,-4.0061,-4.019,-4.0191,-4.0192,-4.025,-4.0251,-4.0252,-4.0236,-4.0234,-4.0233,-4.0231,-4.0286,-4.029,-4.0294,-4.0354,0,0,-4.0306,-4.0308,0,0,0,0,0,0,0,0,-4.0113,-4.0121,-4.019,-4.0191,-4.0192,-4.0234,-4.0225,-4.0286,-4.0237,-4.0219,-4.0232,-4.023,-4.0271,-4.0276,-4.0291,-4.0356,-4.0359,-4.0306,-4.0309,-4.031,-4.0311,0,0,0,0,0,0,0,-4.0109,-4.0118,-4.0214,-4.0191,-4.0192,-4.0187,-4.0193,-4.0236,-4.0254,-4.022,-4.0219,-4.0227,-4.0271,-4.0288,-4.0292,-4.036,-4.0306,-4.031,-4.0312,-4.0314,-4.0476,-4.0478,0,0,0,0,0,0,-4.0105,-4.0115,-4.0212,-4.0216,-4.0147,-4.0191,-4.0198,-4.0222,-4.0254,-4.0257,-4.0229,-4.0226,-4.0282,-4.0288,-4.0294,-4.0366,-4.031,-4.0314,-4.0316,-4.0474,-4.0477,-4.0479,0,0,0,0,0,0,-4.0102,-4.0113,-4.021,-4.0165,-4.0177,-4.0195,-4.0222,-4.0224,-4.024,-4.026,-4.0262,-4.0242,-4.0281,-4.0289,-4.0339,-4.0367,-4.0316,-4.0319,-4.0472,-4.0475,-4.0478,-4.0509,0,0,0,0,0,0,-4.0098,-4.0113,-4.0136,-4.0166,-4.018,-4.0255,-4.0224,-4.0227,-4.0248,-4.0245,-4.0273,-4.0276,-4.028,-4.0334,-4.0343,-4.0372,-4.0322,-4.0469,-4.0473,-4.0477,-4.0505,-4.0513,-4.0519,0,0,0,0,0,-4.0093,-4.0141,-4.0138,-4.0149,-4.021,-4.0257,-4.0264,-4.0269,-4.025,-4.0273,-4.0286,-4.0275,-4.0363,-4.0339,-4.035,-4.038,-4.0468,-4.0472,-4.0477,-4.0502,-4.0511,-4.0519,0,0,0,0,0,0,-4.0112,-4.0145,-4.0141,-4.0201,-4.0226,-4.0254,-4.0283,-4.0278,-4.0308,-4.0304,-4.0307,-4.0314,-4.0365,-4.0378,-4.035,-4.0439,-4.0413,-4.0419,-4.0429,-4.0437,-4.0444,-4.0438,-4.0326,0,0,0,0,0,-4.0124,-4.0161,-4.0187,-4.0237,-4.025,-4.0265,-4.0285,-4.0287,-4.0313,-4.0323,-4.0339,-4.0363,-4.0396,-4.0418,-4.0449,-4.0508,-4.0513,-4.0534,-4.0541,-4.0546,-4.0551,-4.0582,-4.0592,-4.0494,-4.0493,-4.0493,0,0,-4.0147,-4.017,-4.0192,-4.0241,-4.0261,-4.0298,-4.0274,-4.0313,-4.034,-4.0328,-4.0377,-4.039,-4.0417,-4.0472,-4.0497,-4.0484,-4.058,-4.0552,-4.0556,-4.0558,-4.0588,-4.0597,-4.0605,-4.0497,-4.0496,-4.0496,0,0,-4.0208,-4.0229,-4.0273,-4.0294,-4.0326,-4.0335,-4.0346,-4.0375,-4.0384,-4.0434,-4.0426,-4.0457,-4.0514,-4.0534,-4.0551,-4.0621,-4.0612,-4.0632,-4.0665,-4.0696,-4.0703,-4.071,-4.0734,-4.0742,-4.0637,-4.0637,-4.0637,0,-4.0232,-4.0288,-4.0296,-4.0337,-4.0358,-4.0352,-4.0395,-4.0415,-4.0454,-4.0468,-4.0454,-4.0526,-4.0544,-4.0603,-4.062,-4.0635,-4.0646,-4.0627,-4.0702,-4.0709,-4.0715,-4.0738,-4.0747,-4.0639,-4.0639,-4.0639,-4.0639,0,-4.0316,-4.0355,-4.0386,-4.0427,-4.0452,-4.0494,-4.0506,-4.0531,-4.0531,-4.0542,-4.0592,-4.0614,-4.0649,-4.0664,-4.0664,-4.0723,-4.0714,-4.0701,-4.0674,-4.0727,-4.0748,-4.0756,-4.0642,-4.0641,-4.0641,-4.064,0,0,-4.0387,-4.0433,-4.0444,-4.0462,-4.0498,-4.0527,-4.0569,-4.0606,-4.0626,-4.0654,-4.0688,-4.0737,-4.0726,-4.0746,-4.0748,-4.0775,-4.0828,-4.0759,-4.0759,-4.0769,-4.0893,-4.0901,-4.0911,-4.0823,-4.0825,-4.0826,-4.089,0,-4.0449,-4.0524,-4.0533,-4.0599,-4.0635,-4.063,-4.0666,-4.0691,-4.0703,-4.0734,-4.0746,-4.0781,-4.0764,-4.0776,-4.0803,-4.0816,-4.0852,-4.0812,-4.0852,-4.0854,-4.0843,-4.0922,-4.0931,-4.099,-4.0899,-4.09,-4.0901,0,-4.0531,-4.0564,-4.0634,-4.0665,-4.068,-4.0713,-4.0747,-4.0778,-4.0806,-4.0812,-4.0836,-4.0835,-4.0876,-4.085,-4.0906,-4.0878,-4.0896,-4.0905,-4.0907,-4.0909,-4.0879,-4.0924,-4.1009,-4.1017,-4.0914,-4.0913,-4.0912,0,-4.0574,-4.0636,-4.0686,-4.0702,-4.0739,-4.0762,-4.0778,-4.0805,-4.0827,-4.0857,-4.0871,-4.0905,-4.0923,-4.0949,-4.0957,-4.0937,-4.1012,-4.0987,-4.1017,-4.1017,-4.1031,-4.1029,-4.1117,-4.1046,-4.1046,-4.1046,-4.1046,0,-4.0642,-4.0684,-4.0705,-4.0736,-4.0783,-4.0793,-4.0839,-4.0854,-4.0878,-4.091,-4.0909,-4.0938,-4.0948,-4.0979,-4.0986,-4.1031,-4.1039,-4.1045,-4.1045,-4.1043,-4.1043,-4.1053,-4.1048,-4.1048,-4.1048,-4.1047,-4.1047,0,-4.0697,-4.0713,-4.0767,-4.0799,-4.0808,-4.0841,-4.0868,-4.0897,-4.0909,-4.095,-4.096,-4.0979,-4.1015,-4.1027,-4.1071,-4.1075,-4.1127,-4.1125,-4.1118,-4.1117,-4.1146,-4.1143,-4.1242,-4.1255,-4.1177,-4.1178,-4.1179,0,-4.0737,-4.077,-4.0807,-4.083,-4.0847,-4.0883,-4.0906,-4.0918,-4.0941,-4.0976,-4.1,-4.1037,-4.1067,-4.1126,-4.1142,-4.1176,-4.1173,-4.1206,-4.1178,-4.1175,-4.1171,-4.1169,-4.1171,-4.121,-4.1211,-4.1212,-4.1212,0,-4.0808,-4.0814,-4.0849,-4.0886,-4.0914,-4.0943,-4.0971,-4.099,-4.1005,-4.1031,-4.107,-4.1093,-4.1139,-4.1175,-4.121,-4.1225,-4.122,-4.1222,-4.123,-4.1227,-4.1221,-4.1223,-4.113,-4.1218,-4.1218,-4.1217,-4.1217,-4.1217,-4.0855,-4.0884,-4.0915,-4.0953,-4.0976,-4.1003,-4.1032,-4.1049,-4.1082,-4.1121,-4.1126,-4.1167,-4.1194,-4.124,-4.1257,-4.1289,-4.1279,-4.1292,-4.1294,-4.1297,-4.1298,-4.1218,-4.1295,-4.1295,-4.1295,-4.1295,-4.1295,0,-4.0924,-4.0944,-4.0979,-4.102,-4.105,-4.1047,-4.1078,-4.1102,-4.1139,-4.1166,-4.1196,-4.124,-4.1276,-4.1296,-4.1331,-4.1352,-4.1351,-4.1361,-4.1358,-4.1361,-4.1306,-4.1294,-4.1361,-4.1361,-4.1361,-4.1361,-4.1361,-4.1361,-4.0963,-4.1012,-4.1022,-4.1082,-4.1102,-4.1144,-4.1162,-4.1186,-4.1208,-4.1258,-4.1288,-4.1302,-4.1326,-4.1363,-4.1395,-4.1399,-4.1411,-4.1422,-4.1425,-4.1372,-4.1365,-4.1359,-4.1348,-4.1425,-4.1425,-4.1478,-4.1479,-4.1479]},{"header":{"parameterUnit":"m.s-1","parameterCategory":1,"la1":30.2991,"la2":30.254,"lo1":-89.0895,"lo2":-89.0444,"dy":0.0017,"dx":0.0017,"nx":28,"ny":28,"refTime":"2024-04-07T21:00:00:Z","depth":0,"parameterNumber":3,"parameterNumberName":"V-component_of_WINDS"},"data":[0,0,0,0,0,0,0,0,0,0,0,0,0,0,0,0,0,0,0,0,0,0,0,0,0,0,0,0,0,0,0,0,0,0,0,0,0,0,0,0,0,0,0,0,0,0,0,0,0,0,0,0,0,0,0,0,0,0,4.1088,4.1087,0,4.1029,4.1028,4.1027,4.0978,4.0978,4.0977,4.0977,4.0912,4.0911,4.0909,0,0,0,0,0,0,0,0,0,0,0,0,0,4.1159,4.1158,4.1088,4.1087,4.1087,4.1029,4.1028,4.1027,4.0978,4.0978,4.0977,4.0977,4.0912,4.0911,4.0909,0,0,0,0,0,0,0,0,0,0,0,0,0,4.1117,4.1158,4.1088,4.1056,4.1052,4.1029,4.1028,4.1027,4.0979,4.0978,4.0977,4.0976,4.0913,4.0911,4.0909,4.0912,0,0,4.0903,4.0902,0,0,0,0,0,0,0,0,4.1119,4.1114,4.1061,4.1058,4.1054,4.101,4.1029,4.0988,4.0979,4.1006,4.0977,4.0976,4.0945,4.094,4.0931,4.0909,4.0906,4.0903,4.0902,4.0901,4.09,0,0,0,0,0,0,0,4.1122,4.1116,4.1064,4.106,4.1056,4.1044,4.1037,4.1021,4.098,4.1004,4.1,4.0994,4.0943,4.0933,4.0929,4.0905,4.0903,4.0901,4.09,4.0899,4.0888,4.0889,0,0,0,0,0,0,4.113,4.1119,4.1066,4.1063,4.1085,4.1043,4.1035,4.1025,4.098,4.0973,4.0995,4.0992,4.0936,4.0931,4.0926,4.093,4.0901,4.0899,4.0898,4.0887,4.0888,4.0889,0,0,0,0,0,0,4.1132,4.1126,4.1069,4.109,4.1082,4.1043,4.1031,4.1024,4.1014,4.0974,4.0966,4.0992,4.0935,4.0929,4.0917,4.0927,4.0898,4.0897,4.0886,4.0887,4.0889,4.0935,0,0,0,0,0,0,4.1134,4.1127,4.1128,4.109,4.1081,4.1061,4.1032,4.1023,4.1011,4.1007,4.0969,4.0962,4.0934,4.092,4.0915,4.0924,4.0895,4.0885,4.0887,4.0888,4.0933,4.0938,4.0943,0,0,0,0,0,4.1137,4.1141,4.1128,4.1122,4.1081,4.1061,4.1056,4.1025,4.1012,4.1013,4.0988,4.0963,4.0927,4.092,4.0913,4.0921,4.0884,4.0886,4.0888,4.093,4.0937,4.0942,0,0,0,0,0,0,4.1178,4.1135,4.112,4.1112,4.1092,4.1053,4.1053,4.1032,4.1013,4.101,4.0972,4.0964,4.0957,4.0938,4.0931,4.0924,4.0903,4.0903,4.0937,4.0943,4.0948,4.0952,4.0894,0,0,0,0,0,4.1186,4.1175,4.1138,4.1135,4.1126,4.1092,4.1082,4.1061,4.1037,4.1027,4.1,4.0977,4.0961,4.0951,4.0933,4.093,4.0923,4.0933,4.0938,4.0942,4.0943,4.0944,4.0949,4.0895,4.0895,4.0895,0,0,4.1202,4.1178,4.1173,4.1143,4.1124,4.1114,4.1084,4.1073,4.1065,4.1024,4.1013,4.0994,4.0965,4.0959,4.0955,4.0943,4.0957,4.0944,4.0948,4.0947,4.0946,4.0951,4.0956,4.0897,4.0896,4.0896,0,0,4.1228,4.1207,4.1204,4.1188,4.1161,4.1139,4.1138,4.1105,4.1091,4.1079,4.105,4.104,4.1012,4.0994,4.0981,4.1006,4.0984,4.1001,4.1027,4.1028,4.1032,4.1036,4.1047,4.1051,4.1003,4.1003,4.1003,0,4.1251,4.1235,4.1205,4.1197,4.1186,4.1153,4.115,4.1134,4.1102,4.1095,4.1083,4.1051,4.1029,4.102,4.1027,4.1017,4.1016,4.1005,4.1034,4.1037,4.104,4.105,4.1054,4.1005,4.1005,4.1005,4.1004,0,4.1266,4.1256,4.1256,4.123,4.1219,4.1213,4.1184,4.1176,4.1157,4.1137,4.1128,4.1102,4.108,4.1076,4.1056,4.1066,4.106,4.1041,4.1019,4.1049,4.1058,4.1061,4.1009,4.1008,4.1007,4.1007,0,0,4.1311,4.1273,4.1274,4.1263,4.1233,4.1225,4.1219,4.1201,4.1196,4.1176,4.1172,4.1152,4.1136,4.1122,4.11,4.1101,4.1126,4.1083,4.1082,4.1093,4.1138,4.1153,4.1158,4.1112,4.1112,4.1112,4.1141,0,4.1332,4.1322,4.1298,4.1295,4.1287,4.1257,4.1253,4.1235,4.1217,4.1207,4.1187,4.1174,4.1153,4.1145,4.1145,4.1123,4.1135,4.112,4.1108,4.1107,4.1116,4.1162,4.1177,4.1205,4.1144,4.1145,4.1145,0,4.1354,4.1341,4.1338,4.1314,4.1309,4.1306,4.1289,4.128,4.126,4.1247,4.1235,4.1212,4.1206,4.1186,4.1178,4.117,4.1163,4.1152,4.1153,4.115,4.1128,4.1162,4.1213,4.1218,4.115,4.115,4.1149,0,4.1391,4.1371,4.1368,4.136,4.133,4.1329,4.1317,4.1296,4.1288,4.1273,4.1268,4.1252,4.1244,4.1233,4.1207,4.1195,4.1204,4.118,4.1194,4.1195,4.1196,4.1196,4.1248,4.1191,4.1191,4.1191,4.1191,0,4.1417,4.1417,4.1385,4.1383,4.1383,4.1356,4.1357,4.1341,4.1324,4.132,4.1292,4.1288,4.1255,4.1248,4.1227,4.1226,4.1222,4.1212,4.1207,4.1215,4.1216,4.121,4.1208,4.1192,4.1192,4.1191,4.1191,0,4.1456,4.1434,4.143,4.1404,4.1398,4.14,4.1377,4.1375,4.1358,4.1353,4.135,4.1322,4.1312,4.1287,4.1269,4.1256,4.1261,4.125,4.1268,4.1265,4.1281,4.128,4.133,4.1336,4.1275,4.1275,4.1276,0,4.1474,4.1474,4.1451,4.1447,4.1437,4.143,4.1423,4.1398,4.1392,4.1372,4.1373,4.1362,4.1351,4.1338,4.1316,4.1304,4.1294,4.1312,4.1291,4.1301,4.1296,4.1297,4.1298,4.1316,4.1317,4.1318,4.1318,0,4.151,4.1501,4.1492,4.1482,4.1476,4.1466,4.1454,4.1452,4.1424,4.1419,4.141,4.1403,4.1388,4.1378,4.1364,4.135,4.1331,4.1326,4.1328,4.1337,4.1348,4.1344,4.1282,4.1324,4.1324,4.1323,4.1323,4.1323,4.154,4.1541,4.1526,4.1519,4.1508,4.1499,4.1498,4.1482,4.1475,4.1463,4.1448,4.1442,4.1426,4.1405,4.1394,4.1389,4.1378,4.1381,4.1382,4.1384,4.1389,4.1349,4.1386,4.1386,4.1386,4.1386,4.1386,0,4.1576,4.1566,4.1561,4.1547,4.1543,4.1527,4.1515,4.1512,4.1508,4.1495,4.1488,4.148,4.1472,4.1451,4.1441,4.1442,4.1433,4.144,4.144,4.1438,4.1398,4.1398,4.1448,4.1448,4.1448,4.1448,4.1448,4.1448,4.1594,4.1595,4.1585,4.1582,4.1572,4.1568,4.1563,4.1555,4.1546,4.1539,4.1533,4.1521,4.1506,4.1496,4.1489,4.1483,4.1481,4.1492,4.1483,4.1446,4.144,4.1435,4.1434,4.1491,4.1492,4.1524,4.1524,4.1524]}]]